Location: Hilton Head Island
(32.2163°N, 80.7526°W)
Time: 22:14:02
(UTC-04:00)

Transit 2A Rocket - Pass Details

Date: 10 February 2026
Orbit: 583 x 900 km, 66.7° (Epoch: 8 March)

Event Time Altitude Azimuth Distance (km) Brightness Sun altitude
Rises 17:54:05 0° 212° (SSW) 3,407 9.2 1.4°
Reaches altitude 10° 17:56:31 10° 216° (SW) 2,505 8.6 0.9°
Maximum altitude 18:02:21 65° 297° (WNW) 978 5.9 -0.3°
Drops below altitude 10° 18:08:21 10° 19° (NNE) 2,577 7.4 -1.5°
Sets 18:10:54 0° 23° (NNE) 3,511 8.0 -2.1°
